User: anonymous   Login
Location: Iesi
(43.5167°N, 13.2333°E)
Time: 10:50:48
(UTC+00:00)
Language:

SL-4 R/B - Orbit

View from above orbital plane
View from above orbital plane
View from above satellite
View from above satellite

Ground track
Ground track

The orbit data is extracted from the following two-line orbital elements,

1 39679U 14021B   20305.17385805  .00000714  00000-0  52367-4 0  9998
2 39679  51.6150 197.5281 0172051  56.2202 305.5022 15.06560366359800
Epoch (UTC): 31 October 2020 04:10:21
Eccentricity: 0.0172051
inclination: 51.6150°
perigee height: 427 km
apogee height: 666 km
right ascension of ascending node: 197.5281°
argument of perigee: 56.2202°
revolutions per day: 15.06560366
mean anomaly at epoch: 305.5022°
orbit number at epoch: 35980

The dashed part of the orbit path shows where the satellite is in the earth's shadow,  

DLR